[[{"header":{"parameterUnit":"m.s-1","parameterCategory":1,"la1":30.2992,"la2":30.254,"lo1":-89.0895,"lo2":-89.0443,"dy":0.0025,"dx":0.0025,"nx":19,"ny":19,"refTime":"2026-05-13T09:00:00:Z","depth":0,"parameterNumber":2,"parameterNumberName":"U-component_of_WINDS"},"data":[0,0,0,-4.4906,-4.4908,-4.499,-4.4991,-4.513,-4.5131,0,0,0,0,0,0,0,0,0,0,0,-4.4903,-4.4905,-4.4905,-4.4908,-4.499,-4.4991,-4.5129,-4.5131,0,0,0,0,0,0,0,0,0,0,0,-4.4902,-4.4904,-4.4906,-4.4909,-4.499,-4.4991,-4.5129,-4.5055,0,0,0,0,0,0,0,0,0,0,-4.4969,-4.4988,-4.4904,-4.4906,-4.4909,-4.499,-4.4991,-4.505,-4.5059,-4.5107,0,-4.5156,0,-4.5146,-4.5143,-4.5143,0,0,0,-4.4892,-4.4981,-4.4983,-4.4907,-4.491,-4.499,-4.4949,-4.5055,-4.5065,-4.5119,-4.5158,-4.5162,-4.5149,-4.5144,-4.5145,-4.5475,-4.5477,0,0,-4.4887,-4.4929,-4.4976,-4.4991,-4.4981,-4.4946,-4.4951,-4.506,-4.5106,-4.5158,-4.5165,-4.5151,-4.5145,-4.5146,-4.5473,-4.5476,0,0,0,-4.4885,-4.4927,-4.4926,-4.4986,-4.4998,-4.4949,-4.4955,-4.5101,-4.5097,-4.5166,-4.5152,-4.5146,-4.5148,-4.547,-4.5474,-4.5629,0,0,0,-4.4882,-4.4926,-4.4925,-4.4952,-4.4997,-4.5051,-4.4994,-4.5089,-4.51,-4.5152,-4.5146,-4.515,-4.5468,-4.5472,-4.5619,-4.5695,0,0,0,-4.489,-4.4926,-4.4946,-4.4954,-4.499,-4.5048,-4.505,-4.5091,-4.5093,-4.5144,-4.515,-4.5466,-4.5471,-4.561,-4.5681,-4.5794,0,0,0,-4.4911,-4.5083,-4.4949,-4.5135,-4.499,-4.5143,-4.5049,-4.516,-4.5222,-4.5147,-4.5468,-4.5474,-4.5607,-4.5672,-4.5785,-4.5897,-4.5948,0,0,-4.5151,-4.5113,-4.5219,-4.5101,-4.5289,-4.5127,-4.5337,-4.5354,-4.532,-4.5425,-4.5432,-4.5622,-4.568,-4.5792,-4.6216,-4.6257,0,0,0,-4.5309,-4.5386,-4.5426,-4.5487,-4.5504,-4.5524,-4.5504,-4.5509,-4.5596,-4.5383,-4.5692,-4.5725,-4.5789,-4.5841,-4.5875,-4.5927,-4.5499,-4.5499,-4.5498,-4.5711,-4.5657,-4.5828,-4.5784,-4.5844,-4.582,-4.5863,-4.5867,-4.5797,-4.587,-4.5902,-4.6166,-4.6228,-4.6253,-4.6308,-4.5956,-4.5957,-4.5957,-4.5957,-4.6058,-4.6158,-4.6057,-4.6187,-4.6129,-4.6237,-4.622,-4.6166,-4.6258,-4.6138,-4.6192,-4.6066,-4.63,-4.6345,-4.5969,-4.5967,-4.5965,-4.5964,-4.5963,-4.6316,-4.6354,-4.6357,-4.6437,-4.6504,-4.6452,-4.6545,-4.6488,-4.6436,-4.6489,-4.6515,-4.6513,-4.6503,-4.6505,-4.6506,-4.6507,-4.6508,-4.6509,-4.6509,-4.6582,-4.658,-4.6665,-4.6695,-4.6724,-4.6757,-4.6732,-4.676,-4.6776,-4.6728,-4.6728,-4.665,-4.6332,-4.6254,-4.6523,-4.6521,-4.6519,-4.6517,-4.6517,-4.6955,-4.6861,-4.6992,-4.7022,-4.7051,-4.712,-4.7046,-4.7107,-4.7121,-4.7168,-4.7077,-4.6852,-4.6809,-4.6781,-4.6716,-4.7089,-4.7089,-4.7089,-4.7089,-4.7173,-4.7145,-4.7265,-4.7316,-4.7359,-4.7304,-4.7453,-4.7435,-4.7401,-4.7406,-4.7344,-4.7252,-4.7226,-4.7199,-4.7162,-4.71,-4.7562,-4.7563,-4.7563,-4.7399,-4.7372,-4.751,-4.7475,-4.7492,-4.7508,-4.7645,-4.7707,-4.765,-4.7581,-4.7409,-4.7389,-4.724,-4.7195,-4.7124,-4.7068,-4.6954,0,0]},{"header":{"parameterUnit":"m.s-1","parameterCategory":1,"la1":30.2992,"la2":30.254,"lo1":-89.0895,"lo2":-89.0443,"dy":0.0025,"dx":0.0025,"nx":19,"ny":19,"refTime":"2026-05-13T09:00:00:Z","depth":0,"parameterNumber":3,"parameterNumberName":"V-component_of_WINDS"},"data":[0,0,0,-1.0444,-1.0448,-1.065,-1.0651,-1.0886,-1.0888,0,0,0,0,0,0,0,0,0,0,0,-1.0371,-1.0372,-1.0444,-1.0448,-1.065,-1.0651,-1.0885,-1.0888,0,0,0,0,0,0,0,0,0,0,0,-1.037,-1.0372,-1.0373,-1.0449,-1.065,-1.0651,-1.0885,-1.0741,0,0,0,0,0,0,0,0,0,0,-1.0549,-1.0469,-1.0371,-1.0373,-1.045,-1.0649,-1.0651,-1.0734,-1.075,-1.0785,0,-1.0813,0,-1.0854,-1.0902,-1.0903,0,0,0,-1.0458,-1.0455,-1.0522,-1.0373,-1.0452,-1.0649,-1.0562,-1.0743,-1.0761,-1.0805,-1.0817,-1.0826,-1.0858,-1.0903,-1.0904,-1.1075,-1.1075,0,0,-1.0447,-1.04,-1.051,-1.0533,-1.0501,-1.0555,-1.0568,-1.0754,-1.0763,-1.0817,-1.0832,-1.0862,-1.0905,-1.0906,-1.1075,-1.1075,0,0,0,-1.0408,-1.0392,-1.0454,-1.0522,-1.056,-1.0561,-1.0575,-1.0755,-1.0779,-1.0834,-1.0864,-1.0906,-1.0909,-1.1074,-1.1075,-1.1046,0,0,0,-1.0402,-1.0369,-1.0449,-1.0422,-1.0557,-1.066,-1.0571,-1.0766,-1.0789,-1.0863,-1.0906,-1.0911,-1.1074,-1.1075,-1.1046,-1.104,0,0,0,-1.0362,-1.0365,-1.039,-1.0419,-1.0504,-1.0658,-1.0694,-1.0772,-1.0807,-1.0903,-1.0911,-1.1074,-1.1075,-1.1046,-1.104,-1.1071,0,0,0,-1.0306,-1.0361,-1.0388,-1.0461,-1.0502,-1.0639,-1.0693,-1.0798,-1.0877,-1.0907,-1.1074,-1.1075,-1.1046,-1.1041,-1.1071,-1.1088,-1.1091,0,0,-1.0349,-1.0364,-1.0411,-1.0441,-1.0561,-1.0612,-1.0728,-1.0845,-1.0897,-1.1012,-1.1017,-1.1046,-1.104,-1.1071,-1.1125,-1.1126,0,0,0,-1.0409,-1.0441,-1.0483,-1.0557,-1.0648,-1.0725,-1.0829,-1.0872,-1.0973,-1.0947,-1.1067,-1.1065,-1.1085,-1.1096,-1.1097,-1.1117,-1.1078,-1.1078,-1.1078,-1.0401,-1.0465,-1.0547,-1.0635,-1.0705,-1.0812,-1.0875,-1.0951,-1.0995,-1.1022,-1.1057,-1.1081,-1.1092,-1.1093,-1.1113,-1.1071,-1.1071,-1.1071,-1.1071,-1.047,-1.0526,-1.0583,-1.0682,-1.0749,-1.0833,-1.0938,-1.0966,-1.1053,-1.1061,-1.1081,-1.1083,-1.1094,-1.1115,-1.1069,-1.107,-1.107,-1.107,-1.107,-1.0472,-1.051,-1.0562,-1.0675,-1.0755,-1.0842,-1.0923,-1.0982,-1.1037,-1.1057,-1.11,-1.1101,-1.1108,-1.1073,-1.1074,-1.1074,-1.1074,-1.1074,-1.1074,-1.0453,-1.0513,-1.0575,-1.0676,-1.0731,-1.081,-1.0918,-1.0973,-1.105,-1.1085,-1.1086,-1.1126,-1.1083,-1.1071,-1.1076,-1.1075,-1.1075,-1.1075,-1.1075,-1.0498,-1.0497,-1.0593,-1.0647,-1.0771,-1.0846,-1.0919,-1.1027,-1.1081,-1.112,-1.1156,-1.1115,-1.1134,-1.1133,-1.1124,-1.1142,-1.1142,-1.1142,-1.1142,-1.0499,-1.0515,-1.0626,-1.071,-1.0799,-1.0875,-1.098,-1.1064,-1.1151,-1.1189,-1.1195,-1.1187,-1.1183,-1.1205,-1.1203,-1.1194,-1.123,-1.1231,-1.1231,-1.053,-1.0558,-1.0636,-1.0722,-1.0823,-1.0908,-1.1009,-1.1102,-1.1201,-1.1236,-1.1219,-1.1215,-1.1203,-1.1196,-1.123,-1.1225,-1.1211,0,0]}]]